^^
Saratoga-Weather Station Historical Data
Daily Summary for May 26, 2020 Units:  English    Metric   Both
Daily Weekly Monthly Yearly Custom
  High: Low: Average:
Temperature: 77.4 °F 61.9 °F 68.7 °F
Dew Point: 64 °F 53.4 °F 58.1 °F
Humidity: 92% 44% 70%
Wind Speed: 12.1mph 0mph 2.8mph
Wind Gust: 18mph - -
Wind- - West
Pressure: 30 in 29.8 in -
Precipitation: 0.09 in    
Historical Graphs
 
 
Tabular Data for May 26, 2020
Time Temperature Dew Point Pressure Wind Wind Speed Wind Gust Humidity Rainfall Rate (Hourly) solar
00:03 70.3 °F 58.8 °F 29.8 in West 4 mph 6 mph 67% 0 in 0 W/m2
00:08 70.3 °F 58.8 °F 29.8 in NW 2.9 mph 8 mph 67% 0 in 0 W/m2
00:13 70.2 °F 58.6 °F 29.8 in WSW 4.9 mph 9 mph 67% 0 in 0 W/m2
00:18 70.2 °F 59.2 °F 29.8 in WNW 6.9 mph 7 mph 68% 0 in 0 W/m2
00:23 70 °F 58.5 °F 29.8 in West 2.9 mph 12 mph 67% 0 in 0 W/m2
00:28 70 °F 59 °F 29.8 in WSW 4 mph 4 mph 68% 0 in 0 W/m2
00:33 70 °F 59 °F 29.8 in NW 8.1 mph 8 mph 68% 0 in 0 W/m2
00:38 69.8 °F 58.8 °F 29.8 in WNW 2.9 mph 7 mph 68% 0 in 0 W/m2
00:43 69.6 °F 59 °F 29.8 in WNW 4.9 mph 11 mph 69% 0 in 0 W/m2
00:48 69.3 °F 59 °F 29.8 in West 6 mph 6 mph 70% 0 in 0 W/m2
00:53 69.1 °F 58.8 °F 29.8 in West 4 mph 7 mph 70% 0 in 0 W/m2
00:58 68.7 °F 59 °F 29.8 in West 2 mph 8 mph 71% 0 in 0 W/m2
01:03 68.4 °F 59.4 °F 29.8 in West 2 mph 5 mph 73% 0 in 0 W/m2
01:08 67.6 °F 59.4 °F 29.8 in NW 2 mph 8 mph 75% 0 in 0 W/m2
01:13 67.3 °F 59.5 °F 29.8 in WNW 2 mph 3 mph 76% 0 in 0 W/m2
01:18 66.9 °F 59.5 °F 29.8 in NW 0.9 mph 3 mph 77% 0 in 0 W/m2
01:23 66.7 °F 59.7 °F 29.8 in Calm     78% 0 in 0 W/m2
01:28 66.6 °F 59.9 °F 29.8 in Calm   1 mph 79% 0 in 0 W/m2
01:34 66.4 °F 59.7 °F 29.8 in SSE 0.9 mph 1 mph 79% 0 in 0 W/m2
01:39 66.4 °F 59.7 °F 29.8 in NNW 0.9 mph 2 mph 79% 0 in 0 W/m2
01:44 66.4 °F 60.4 °F 29.8 in Calm     81% 0 in 0 W/m2
01:49 66 °F 60.1 °F 29.8 in Calm   2 mph 81% 0 in 0 W/m2
01:54 65.8 °F 60.6 °F 29.8 in WNW 2 mph 2 mph 83% 0.01 in 0 W/m2
01:59 65.7 °F 60.1 °F 29.8 in West 0.9 mph 4 mph 82% 0.01 in 0 W/m2
02:04 65.5 °F 59.9 °F 29.8 in WSW 2 mph 4 mph 82% 0.01 in 0 W/m2
02:09 65.7 °F 60.1 °F 29.8 in Calm   1 mph 82% 0.01 in 0 W/m2
02:14 65.7 °F 60.1 °F 29.8 in NNW 6 mph 6 mph 82% 0.01 in 0 W/m2
02:19 65.7 °F 60.1 °F 29.8 in WNW 4 mph 6 mph 82% 0.01 in 0 W/m2
02:24 65.7 °F 59.7 °F 29.8 in NW 4 mph 7 mph 81% 0.01 in 0 W/m2
02:29 65.8 °F 59.9 °F 29.8 in WNW 2 mph 8 mph 81% 0.01 in 0 W/m2
02:34 65.8 °F 59.5 °F 29.8 in WNW 2 mph 4 mph 80% 0.01 in 0 W/m2
02:39 65.8 °F 59.5 °F 29.8 in NNW 0.9 mph 2 mph 80% 0.01 in 0 W/m2
02:44 65.8 °F 59.5 °F 29.8 in Calm   2 mph 80% 0.01 in 0 W/m2
02:49 65.8 °F 59.5 °F 29.8 in Calm   3 mph 80% 0 in 0 W/m2
02:54 65.8 °F 59.5 °F 29.8 in NE 2 mph 2 mph 80% 0 in 0 W/m2
02:59 65.8 °F 59.5 °F 29.8 in North 0.9 mph 4 mph 80% 0 in 0 W/m2
03:04 65.7 °F 59.7 °F 29.8 in North 0.9 mph 2 mph 81% 0 in 0 W/m2
03:10 65.7 °F 59.7 °F 29.8 in NE 0.9 mph 4 mph 81% 0 in 0 W/m2
03:15 65.7 °F 59.7 °F 29.8 in Calm     81% 0 in 0 W/m2
03:20 65.5 °F 59.9 °F 29.8 in Calm     82% 0 in 0 W/m2
03:25 65.1 °F 59.9 °F 29.8 in Calm     83% 0 in 0 W/m2
03:30 64.9 °F 59.9 °F 29.8 in Calm   1 mph 84% 0 in 0 W/m2
03:35 64.8 °F 60.1 °F 29.8 in Calm   1 mph 85% 0 in 0 W/m2
03:40 64.6 °F 59.9 °F 29.8 in NNW 0.9 mph 2 mph 85% 0 in 0 W/m2
03:45 64.6 °F 59.7 °F 29.8 in WNW 2 mph 5 mph 84% 0 in 0 W/m2
03:50 64.8 °F 59.5 °F 29.8 in Calm   2 mph 83% 0 in 0 W/m2
03:55 64.9 °F 59.7 °F 29.8 in West 2 mph 4 mph 83% 0 in 0 W/m2
04:00 65.1 °F 59.9 °F 29.8 in WNW 2 mph 3 mph 83% 0 in 0 W/m2
04:05 65.1 °F 59.5 °F 29.8 in Calm   4 mph 82% 0 in 0 W/m2
04:10 65.1 °F 59.5 °F 29.8 in NNW 0.9 mph 2 mph 82% 0 in 0 W/m2
04:15 65.3 °F 59.7 °F 29.8 in North 2 mph 3 mph 82% 0 in 0 W/m2
04:20 65.3 °F 59.7 °F 29.8 in NNE 2 mph 3 mph 82% 0 in 0 W/m2
04:25 65.5 °F 59.5 °F 29.8 in NW 0.9 mph 4 mph 81% 0 in 0 W/m2
04:30 65.5 °F 59.5 °F 29.8 in NE 0.9 mph 2 mph 81% 0 in 0 W/m2
04:35 65.5 °F 59.5 °F 29.8 in North 0.9 mph 9 mph 81% 0 in 0 W/m2
04:41 65.5 °F 59.5 °F 29.8 in West 2.9 mph 4 mph 81% 0 in 0 W/m2
04:46 65.5 °F 59.5 °F 29.8 in NNW 4 mph 9 mph 81% 0 in 0 W/m2
04:51 65.5 °F 59.5 °F 29.8 in NW 2 mph 4 mph 81% 0 in 0 W/m2
04:56 65.5 °F 59.5 °F 29.8 in NW 2 mph 8 mph 81% 0 in 0 W/m2
05:01 65.5 °F 59.5 °F 29.8 in West 0.9 mph 5 mph 81% 0 in 0 W/m2
05:06 65.5 °F 59.5 °F 29.8 in NW 0.9 mph 4 mph 81% 0 in 0 W/m2
05:11 65.5 °F 59.5 °F 29.8 in Calm   4 mph 81% 0 in 0 W/m2
05:16 65.5 °F 59.5 °F 29.8 in ENE 2 mph 2 mph 81% 0 in 0 W/m2
05:21 65.5 °F 59.9 °F 29.8 in West 0.9 mph 4 mph 82% 0 in 0 W/m2
05:26 65.5 °F 59.9 °F 29.8 in Calm   2 mph 82% 0 in 0 W/m2
05:31 65.3 °F 59.7 °F 29.8 in WSW 0.9 mph 3 mph 82% 0 in 0 W/m2
05:36 65.3 °F 59.7 °F 29.8 in WNW 0.9 mph 2 mph 82% 0 in 0 W/m2
05:41 65.1 °F 59.5 °F 29.8 in NE 0.9 mph 2 mph 82% 0 in 0 W/m2
05:47 65.1 °F 59.5 °F 29.8 in Calm   2 mph 82% 0 in 0 W/m2
05:52 65.1 °F 59.9 °F 29.8 in WNW 0.9 mph 2 mph 83% 0 in 0 W/m2
05:57 65.1 °F 59.9 °F 29.8 in WNW 2 mph 4 mph 83% 0 in 0 W/m2
06:02 65.1 °F 59.9 °F 29.8 in WNW 2 mph 5 mph 83% 0 in 0 W/m2
06:07 64.9 °F 59.7 °F 29.8 in West 2.9 mph 4 mph 83% 0 in 0 W/m2
06:12 64.9 °F 59.7 °F 29.8 in Calm   3 mph 83% 0 in 0 W/m2
06:17 64.8 °F 59.9 °F 29.8 in Calm   1 mph 84% 0 in 0 W/m2
06:22 64.6 °F 59.7 °F 29.8 in WNW 0.9 mph 7 mph 84% 0 in 5 W/m2
06:27 64.6 °F 59.7 °F 29.8 in NW 2.9 mph 3 mph 84% 0 in 7 W/m2
06:32 64.6 °F 59.7 °F 29.8 in West 7 mph 7 mph 84% 0 in 9 W/m2
06:37 64.6 °F 59.7 °F 29.8 in NW 0.9 mph 3 mph 84% 0 in 14 W/m2
06:42 64.6 °F 59.7 °F 29.8 in West 7 mph 7 mph 84% 0 in 26 W/m2
06:47 64.6 °F 59.7 °F 29.8 in NW 2 mph 7 mph 84% 0 in 23 W/m2
06:52 64.6 °F 59.7 °F 29.8 in WNW 2.9 mph 6 mph 84% 0 in 25 W/m2
06:57 64.8 °F 59.9 °F 29.8 in West 6 mph 9 mph 84% 0 in 25 W/m2
07:07 64.6 °F 59.7 °F 29.8 in West 4 mph 9 mph 84% 0 in 30 W/m2
07:12 64.6 °F 59.7 °F 29.8 in NW 4 mph 4 mph 84% 0 in 42 W/m2
07:17 64.4 °F 59.5 °F 29.8 in NW 2 mph 7 mph 84% 0 in 30 W/m2
07:22 64.2 °F 59.5 °F 29.8 in WNW 2 mph 2 mph 85% 0.01 in 21 W/m2
07:27 64 °F 59.7 °F 29.8 in WNW 2 mph 4 mph 86% 0.01 in 35 W/m2
07:32 64 °F 59.7 °F 29.8 in Calm   3 mph 86% 0.01 in 39 W/m2
07:37 63.9 °F 59.9 °F 29.8 in NW 2 mph 6 mph 87% 0.01 in 33 W/m2
07:42 63.9 °F 59.9 °F 29.8 in West 2 mph 7 mph 87% 0.01 in 35 W/m2
07:47 63.9 °F 60.3 °F 29.8 in WSW 4 mph 7 mph 88% 0.01 in 72 W/m2
07:52 63.9 °F 60.3 °F 29.8 in NW 2 mph 7 mph 88% 0.01 in 46 W/m2
07:57 63.9 °F 60.6 °F 29.8 in NW 2 mph 2 mph 89% 0.01 in 118 W/m2
08:02 64 °F 60.8 °F 29.8 in NW 2 mph 7 mph 89% 0.01 in 69 W/m2
08:07 64.2 °F 60.6 °F 29.8 in SW 2 mph 2 mph 88% 0.01 in 46 W/m2
08:13 64.2 °F 61 °F 29.8 in Calm   6 mph 89% 0.01 in 60 W/m2
08:18 64.2 °F 60.6 °F 29.8 in WSW 2 mph 3 mph 88% 0.01 in 42 W/m2
08:23 64.4 °F 60.8 °F 29.8 in NNE 2 mph 3 mph 88% 0 in 83 W/m2
08:28 64.4 °F 60.8 °F 29.8 in NNW 2 mph 3 mph 88% 0 in 97 W/m2
08:33 64.4 °F 60.8 °F 29.8 in Calm   4 mph 88% 0 in 90 W/m2
08:38 64.2 °F 60.6 °F 29.8 in WSW 2.9 mph 5 mph 88% 0 in 69 W/m2
08:43 64.2 °F 61 °F 29.8 in NE 0.9 mph 4 mph 89% 0 in 62 W/m2
08:48 64.2 °F 61 °F 29.8 in North 2.9 mph 3 mph 89% 0 in 120 W/m2
08:53 64.4 °F 61.2 °F 29.8 in South 0.9 mph 2 mph 89% 0 in 98 W/m2
08:58 64.6 °F 61.3 °F 29.8 in WNW 4 mph 7 mph 89% 0 in 102 W/m2
09:03 64.6 °F 61.3 °F 29.8 in NE 0.9 mph 2 mph 89% 0 in 67 W/m2
09:08 64.8 °F 61.5 °F 29.8 in NW 2.9 mph 7 mph 89% 0 in 174 W/m2
09:13 64.8 °F 61.5 °F 29.8 in West 2.9 mph 3 mph 89% 0 in 139 W/m2
09:18 64.9 °F 61.7 °F 29.8 in WSW 2 mph 8 mph 89% 0 in 153 W/m2
09:23 65.1 °F 61.9 °F 29.8 in WNW 2.9 mph 4 mph 89% 0 in 135 W/m2
09:28 65.5 °F 61.9 °F 29.8 in West 8.1 mph 8 mph 88% 0 in 114 W/m2
09:33 65.5 °F 61.9 °F 29.8 in WNW 2.9 mph 11 mph 88% 0 in 304 W/m2
09:38 65.8 °F 61.9 °F 29.8 in West 2 mph 2 mph 87% 0 in 253 W/m2
09:43 66.2 °F 61.9 °F 29.9 in NW 4 mph 11 mph 86% 0 in 121 W/m2
09:48 66 °F 61.7 °F 29.9 in NW 2 mph 6 mph 86% 0 in 146 W/m2
09:53 65.8 °F 62.2 °F 29.9 in West 2 mph 8 mph 88% 0 in 111 W/m2
09:58 65.5 °F 61.9 °F 29.9 in WNW 2.9 mph 9 mph 88% 0 in 107 W/m2
10:03 65.1 °F 61.5 °F 29.9 in West 2.9 mph 12 mph 88% 0 in 98 W/m2
10:08 65.1 °F 61.9 °F 29.9 in WNW 6 mph 6 mph 89% 0 in 186 W/m2
10:13 65.1 °F 61.9 °F 29.9 in WNW 6.9 mph 10 mph 89% 0 in 97 W/m2
10:18 64.9 °F 61.3 °F 29.9 in WNW 6.9 mph 7 mph 88% 0.01 in 149 W/m2
10:23 64.8 °F 61.5 °F 29.9 in West 2.9 mph 7 mph 89% 0.03 in 139 W/m2
10:28 64.4 °F 61.3 °F 29.9 in NNW 2 mph 7 mph 90% 0.04 in 97 W/m2
10:33 64.2 °F 61.2 °F 29.9 in SSW 0.9 mph 4 mph 90% 0.06 in 146 W/m2
10:38 64 °F 61 °F 29.9 in NW 2 mph 7 mph 90% 0.07 in 155 W/m2
10:43 64 °F 61.3 °F 29.9 in West 2 mph 6 mph 91% 0.08 in 183 W/m2
10:48 63.9 °F 61.2 °F 29.9 in West 4 mph 10 mph 91% 0.08 in 279 W/m2
10:53 64 °F 61.3 °F 29.9 in SSW 4 mph 4 mph 91% 0.08 in 209 W/m2
10:58 64.2 °F 61.9 °F 29.9 in WNW 0.9 mph 9 mph 92% 0.08 in 227 W/m2
11:03 64.9 °F 62.2 °F 29.9 in WNW 4 mph 12 mph 91% 0.08 in 640 W/m2
11:08 65.3 °F 62.6 °F 29.9 in WSW 4.9 mph 9 mph 91% 0.08 in 680 W/m2
11:13 65.8 °F 62.8 °F 29.9 in WSW 8.1 mph 12 mph 90% 0.08 in 726 W/m2
11:18 66.6 °F 63.1 °F 29.9 in West 4 mph 9 mph 89% 0.07 in 719 W/m2
11:23 67.1 °F 62.8 °F 29.9 in West 8.9 mph 10 mph 86% 0.05 in 782 W/m2
11:28 67.6 °F 64 °F 29.9 in NNW 6 mph 7 mph 88% 0.04 in 986 W/m2
11:33 68 °F 62.2 °F 29.9 in West 4 mph 10 mph 82% 0.02 in 550 W/m2
11:38 68 °F 61.5 °F 29.9 in WSW 8.9 mph 12 mph 80% 0.01 in 239 W/m2
11:43 67.6 °F 61.2 °F 29.9 in West 2 mph 4 mph 80% 0 in 371 W/m2
11:48 67.3 °F 60.6 °F 29.9 in NW 4 mph 12 mph 79% 0 in 237 W/m2
11:53 67.3 °F 61 °F 29.9 in SW 0.9 mph 8 mph 80% 0 in 369 W/m2
11:58 67.3 °F 61 °F 29.9 in SW 4.9 mph 7 mph 80% 0 in 178 W/m2
12:03 67.5 °F 61.2 °F 29.9 in WSW 2.9 mph 3 mph 80% 0 in 427 W/m2
12:09 67.5 °F 60.8 °F 29.9 in WSW 2 mph 3 mph 79% 0 in 253 W/m2
12:14 67.8 °F 61.3 °F 29.9 in WSW 2.9 mph 6 mph 80% 0 in 302 W/m2
12:24 68.5 °F 62.1 °F 29.9 in NW 2.9 mph 4 mph 80% 0 in 728 W/m2
12:29 69.1 °F 61.2 °F 29.9 in SW 2.9 mph 6 mph 76% 0 in 649 W/m2
12:34 69.3 °F 62.1 °F 29.9 in WSW 2.9 mph 7 mph 78% 0 in 575 W/m2
12:39 69.1 °F 61.5 °F 29.9 in NNW 2.9 mph 5 mph 77% 0 in 406 W/m2
12:44 69.4 °F 61.9 °F 29.9 in WNW 4 mph 12 mph 77% 0 in 853 W/m2
12:49 70.2 °F 62.2 °F 29.9 in NNE 0.9 mph 7 mph 76% 0 in 362 W/m2
12:54 70.3 °F 61.3 °F 29.9 in SW 2 mph 9 mph 73% 0 in 789 W/m2
12:59 70.3 °F 61.3 °F 29.9 in East 2 mph 3 mph 73% 0 in 283 W/m2
13:09 70.7 °F 60.4 °F 29.9 in NW 4.9 mph 5 mph 70% 0 in 427 W/m2
13:14 71.1 °F 60.4 °F 29.9 in WNW 4.9 mph 11 mph 69% 0 in 329 W/m2
13:19 70.9 °F 59.4 °F 29.9 in West 8.1 mph 9 mph 67% 0 in 209 W/m2
13:24 70.3 °F 58.8 °F 29.9 in West 8.9 mph 9 mph 67% 0 in 190 W/m2
13:29 70.2 °F 58.6 °F 29.9 in West 4 mph 6 mph 67% 0 in 248 W/m2
13:34 70.5 °F 59.4 °F 29.9 in West 6 mph 6 mph 68% 0 in 327 W/m2
13:39 70.9 °F 58.5 °F 29.9 in SSW 4 mph 10 mph 65% 0 in 418 W/m2
13:44 71.2 °F 57.9 °F 29.9 in NW 2.9 mph 9 mph 63% 0 in 519 W/m2
13:49 71.8 °F 58.5 °F 29.9 in West 8.1 mph 13 mph 63% 0 in 789 W/m2
13:54 72.1 °F 58.5 °F 29.9 in West 6.9 mph 9 mph 62% 0 in 1034 W/m2
13:59 72.7 °F 58.5 °F 29.9 in West 2.9 mph 7 mph 61% 0 in 1042 W/m2
14:04 73 °F 58.3 °F 29.9 in West 2.9 mph 9 mph 60% 0 in 1042 W/m2
14:09 73 °F 58.3 °F 29.9 in WNW 4 mph 6 mph 60% 0 in 415 W/m2
14:14 72.7 °F 57.9 °F 29.9 in SW 6 mph 13 mph 60% 0 in 304 W/m2
14:19 72.5 °F 56.8 °F 29.9 in NW 4 mph 10 mph 58% 0 in 371 W/m2
14:24 72.5 °F 56.8 °F 29.9 in WSW 11 mph 11 mph 58% 0 in 339 W/m2
14:29 72.9 °F 56.7 °F 29.9 in WNW 2.9 mph 9 mph 57% 0 in 397 W/m2
14:34 73 °F 56.8 °F 29.9 in WNW 8.9 mph 10 mph 57% 0 in 403 W/m2
14:39 73.2 °F 56.1 °F 29.9 in NW 8.9 mph 9 mph 55% 0 in 410 W/m2
14:44 73.6 °F 56.8 °F 29.9 in West 10.1 mph 10 mph 56% 0 in 499 W/m2
14:49 74.1 °F 55.4 °F 29.9 in West 2.9 mph 8 mph 52% 0 in 499 W/m2
14:54 74.5 °F 55.2 °F 29.9 in WNW 8.1 mph 10 mph 51% 0 in 533 W/m2
15:04 74.5 °F 55.2 °F 29.9 in WNW 6.9 mph 10 mph 51% 0 in 703 W/m2
15:09 74.7 °F 54.9 °F 29.9 in WSW 0.9 mph 12 mph 50% 0 in 566 W/m2
15:14 74.8 °F 55.6 °F 29.9 in WSW 4.9 mph 10 mph 51% 0 in 566 W/m2
15:19 74.8 °F 55 °F 29.9 in WNW 4.9 mph 7 mph 50% 0 in 566 W/m2
15:24 75 °F 54.5 °F 29.9 in WNW 4 mph 9 mph 49% 0 in 316 W/m2
15:29 74.7 °F 55.4 °F 29.9 in WSW 2.9 mph 4 mph 51% 0 in 352 W/m2
15:34 74.7 °F 55.4 °F 29.9 in WNW 4 mph 10 mph 51% 0 in 343 W/m2
15:39 74.8 °F 54.3 °F 29.9 in NW 8.1 mph 13 mph 49% 0 in 343 W/m2
15:44 75.4 °F 54.9 °F 29.9 in West 12.1 mph 12 mph 49% 0 in 473 W/m2
15:49 75.4 °F 54.9 °F 29.9 in West 4 mph 13 mph 49% 0 in 659 W/m2
15:54 75.7 °F 55.2 °F 29.9 in NW 8.9 mph 10 mph 49% 0 in 754 W/m2
15:59 75.9 °F 55.4 °F 29.9 in West 6.9 mph 15 mph 49% 0 in 754 W/m2
16:04 75.7 °F 55.2 °F 29.9 in WNW 6.9 mph 10 mph 49% 0 in 376 W/m2
16:09 75.6 °F 56.1 °F 29.9 in West 8.1 mph 11 mph 51% 0 in 628 W/m2
16:14 75.6 °F 55.6 °F 29.9 in WNW 6.9 mph 9 mph 50% 0 in 490 W/m2
16:19 75.7 °F 54.7 °F 29.9 in WNW 2.9 mph 11 mph 48% 0 in 782 W/m2
16:24 75.9 °F 53.6 °F 29.9 in WNW 2.9 mph 10 mph 46% 0 in 884 W/m2
16:29 76.5 °F 54.7 °F 29.9 in NW 8.9 mph 9 mph 47% 0 in 817 W/m2
16:34 76.6 °F 53.8 °F 29.9 in WSW 4 mph 14 mph 45% 0 in 789 W/m2
16:39 76.6 °F 54.3 °F 29.9 in NW 8.1 mph 12 mph 46% 0 in 686 W/m2
16:44 75.9 °F 54.3 °F 29.9 in WNW 2.9 mph 7 mph 47% 0 in 190 W/m2
16:49 75.6 °F 54.5 °F 29.9 in West 4 mph 13 mph 48% 0 in 234 W/m2
16:54 75 °F 54.5 °F 29.9 in WNW 0.9 mph 8 mph 49% 0 in 200 W/m2
16:59 75.6 °F 54.5 °F 29.9 in West 4 mph 13 mph 48% 0 in 366 W/m2
17:04 75.4 °F 54.3 °F 29.9 in WSW 4 mph 7 mph 48% 0 in 144 W/m2
17:09 75 °F 54.5 °F 29.9 in WNW 2.9 mph 11 mph 49% 0 in 795 W/m2
17:14 75.7 °F 55.2 °F 29.9 in West 6 mph 8 mph 49% 0 in 744 W/m2
17:19 76.3 °F 55.8 °F 29.9 in WNW 2 mph 10 mph 49% 0 in 693 W/m2
17:25 76.8 °F 54.5 °F 29.9 in NNW 2.9 mph 11 mph 46% 0 in 679 W/m2
17:30 77.2 °F 54.9 °F 29.9 in WNW 4 mph 6 mph 46% 0 in 520 W/m2
17:35 76.6 °F 54.9 °F 29.9 in WNW 4 mph 7 mph 47% 0 in 360 W/m2
17:40 76.6 °F 54.3 °F 29.9 in West 2.9 mph 7 mph 46% 0 in 584 W/m2
17:45 77 °F 54.7 °F 29.9 in NW 8.9 mph 18 mph 46% 0 in 592 W/m2
17:50 77 °F 53.4 °F 29.9 in WNW 4.9 mph 12 mph 44% 0 in 584 W/m2
17:55 77 °F 54.7 °F 29.9 in WSW 6.9 mph 10 mph 46% 0 in 533 W/m2
18:00 77.2 °F 53.6 °F 29.9 in NNW 6 mph 12 mph 44% 0 in 445 W/m2
18:05 77.4 °F 54.3 °F 29.9 in SW 6.9 mph 13 mph 45% 0 in 513 W/m2
18:10 76.8 °F 53.8 °F 29.9 in West 6.9 mph 10 mph 45% 0 in 141 W/m2
18:15 76.3 °F 54 °F 29.9 in WSW 2 mph 13 mph 46% 0 in 483 W/m2
18:20 76.1 °F 54.3 °F 29.9 in West 2 mph 8 mph 47% 0 in 218 W/m2
18:25 76.3 °F 54 °F 29.9 in West 6 mph 10 mph 46% 0 in 487 W/m2
18:30 76.5 °F 54.1 °F 29.9 in WNW 0.9 mph 7 mph 46% 0 in 464 W/m2
18:35 76.3 °F 54 °F 29.9 in SSW 2.9 mph 12 mph 46% 0 in 79 W/m2
18:41 75.6 °F 54 °F 29.9 in NW 6.9 mph 10 mph 47% 0 in 70 W/m2
18:46 74.8 °F 54.3 °F 29.9 in NW 2.9 mph 11 mph 49% 0 in 111 W/m2
18:51 74.7 °F 54.3 °F 29.9 in West 0.9 mph 2 mph 49% 0 in 76 W/m2
18:56 74.5 °F 54.7 °F 29.9 in WSW 2 mph 6 mph 50% 0 in 339 W/m2
19:01 74.8 °F 54.3 °F 29.9 in West 4 mph 8 mph 49% 0 in 105 W/m2
19:06 74.8 °F 54.3 °F 29.9 in West 2.9 mph 5 mph 49% 0 in 163 W/m2
19:11 74.8 °F 54.3 °F 29.9 in West 0.9 mph 5 mph 49% 0 in 58 W/m2
19:16 74.7 °F 54.3 °F 29.9 in WNW 4.9 mph 5 mph 49% 0 in 60 W/m2
19:21 74.3 °F 54.5 °F 29.9 in WNW 2 mph 6 mph 50% 0 in 62 W/m2
19:26 74.5 °F 54.7 °F 29.9 in West 4 mph 4 mph 50% 0 in 232 W/m2
19:31 74.8 °F 54.3 °F 29.9 in West 2 mph 6 mph 49% 0 in 292 W/m2
19:36 75.6 °F 55 °F 29.9 in WSW 4.9 mph 5 mph 49% 0 in 248 W/m2
19:41 75.9 °F 54.9 °F 29.9 in NW 0.9 mph 3 mph 48% 0 in 220 W/m2
19:46 75.9 °F 54.3 °F 29.9 in NW 0.9 mph 7 mph 47% 0 in 69 W/m2
19:51 75.9 °F 55.4 °F 29.9 in WNW 2 mph 3 mph 49% 0 in 192 W/m2
19:56 75.9 °F 54.3 °F 29.9 in WNW 4 mph 6 mph 47% 0 in 169 W/m2
20:01 75.7 °F 54.7 °F 29.9 in West 4 mph 6 mph 48% 0 in 137 W/m2
20:06 75.6 °F 54.5 °F 29.9 in WSW 2.9 mph 5 mph 48% 0 in 69 W/m2
20:11 75.2 °F 54.7 °F 29.9 in WNW 2.9 mph 8 mph 49% 0 in 104 W/m2
20:16 75 °F 55 °F 29.9 in West 2 mph 2 mph 50% 0 in 95 W/m2
20:21 74.8 °F 55 °F 29.9 in West 2.9 mph 8 mph 50% 0 in 83 W/m2
20:26 74.5 °F 55.2 °F 29.9 in West 0.9 mph 2 mph 51% 0 in 49 W/m2
20:31 73.9 °F 54.7 °F 30 in West 0.9 mph 3 mph 51% 0 in 23 W/m2
20:36 73.6 °F 54.9 °F 30 in Calm   3 mph 52% 0 in 30 W/m2
20:41 73 °F 55.4 °F 30 in Calm     54% 0 in 21 W/m2
20:46 72.9 °F 56.7 °F 30 in West 0.9 mph 3 mph 57% 0 in 19 W/m2
20:51 72.3 °F 56.3 °F 30 in West 0.9 mph 1 mph 57% 0 in 21 W/m2
20:56 71.8 °F 55.8 °F 30 in West 2 mph 2 mph 57% 0 in 19 W/m2
21:01 71.2 °F 56.1 °F 30 in Calm   1 mph 59% 0 in 16 W/m2
21:06 70.7 °F 55.2 °F 30 in West 2 mph 2 mph 58% 0 in 12 W/m2
21:12 70.3 °F 54.9 °F 30 in Calm   3 mph 58% 0 in 9 W/m2
21:17 70.2 °F 55.2 °F 30 in WSW 0.9 mph 3 mph 59% 0 in 7 W/m2
21:22 69.8 °F 54.9 °F 30 in West 0.9 mph 2 mph 59% 0 in 0 W/m2
21:27 69.6 °F 54.1 °F 30 in West 2 mph 2 mph 58% 0 in 0 W/m2
21:32 69.4 °F 54.5 °F 30 in Calm   4 mph 59% 0 in 0 W/m2
21:37 69.4 °F 55.4 °F 30 in Calm     61% 0 in 0 W/m2
21:42 69.1 °F 55 °F 30 in Calm     61% 0 in 0 W/m2
21:47 68.5 °F 55 °F 30 in Calm   1 mph 62% 0 in 0 W/m2
21:52 68.2 °F 55 °F 30 in Calm     63% 0 in 0 W/m2
21:57 67.6 °F 55 °F 30 in West 0.9 mph 1 mph 64% 0 in 0 W/m2
22:02 67.3 °F 55 °F 30 in Calm     65% 0 in 0 W/m2
22:07 66.9 °F 55.2 °F 30 in Calm     66% 0 in 0 W/m2
22:12 66.6 °F 54.9 °F 30 in Calm     66% 0 in 0 W/m2
22:17 66.4 °F 55 °F 30 in Calm     67% 0 in 0 W/m2
22:22 66 °F 54.7 °F 30 in Calm     67% 0 in 0 W/m2
22:27 65.7 °F 54.9 °F 30 in Calm     68% 0 in 0 W/m2
22:32 65.3 °F 54.5 °F 30 in Calm     68% 0 in 0 W/m2
22:37 64.9 °F 54.1 °F 30 in Calm     68% 0 in 0 W/m2
22:42 64.8 °F 54.3 °F 30 in Calm     69% 0 in 0 W/m2
22:47 64.4 °F 54.3 °F 30 in Calm     70% 0 in 0 W/m2
22:52 64 °F 54.1 °F 30 in Calm     70% 0 in 0 W/m2
22:57 63.9 °F 54.3 °F 30 in Calm     71% 0 in 0 W/m2
23:03 63.7 °F 54.1 °F 30 in Calm     71% 0 in 0 W/m2
23:08 63.5 °F 54.3 °F 30 in Calm     72% 0 in 0 W/m2
23:13 63.3 °F 54.1 °F 30 in Calm   1 mph 72% 0 in 0 W/m2
23:18 63.3 °F 54.5 °F 30 in Calm     73% 0 in 0 W/m2
23:23 63.1 °F 54.3 °F 30 in Calm     73% 0 in 0 W/m2
23:28 63 °F 54.1 °F 30 in Calm     73% 0 in 0 W/m2
23:33 62.8 °F 54 °F 30 in Calm     73% 0 in 0 W/m2
23:38 62.4 °F 54 °F 30 in Calm     74% 0 in 0 W/m2
23:43 62.2 °F 53.8 °F 30 in Calm     74% 0 in 0 W/m2
23:48 62.2 °F 53.8 °F 30 in Calm     74% 0 in 0 W/m2
23:53 62.1 °F 53.6 °F 30 in Calm     74% 0 in 0 W/m2
23:58 61.9 °F 53.8 °F 30 in Calm     75% 0 in 0 W/m2
Juneau County Weather
Compliments of Weather Underground - 4 mb